Location: Audinghen
(50.8518°N, 1.6129°E)
Time: 16:36:08
(UTC+00:00)

SJ 16-02 - Pass Details

Date: 07 August 2020
Orbit: 607 x 616 km, 75.0° (Epoch: 25 September)

Event Time Altitude Azimuth Distance (km) Brightness Sun altitude
Exits shadow 03:02:15 17° 226° (SW) 1,543 2.7 -11.8°
Maximum altitude 03:05:25 51° 297° (WNW) 776 1.7 -11.5°
Drops below altitude 10° 03:09:44 10° 15° (NNE) 1,982 4.9 -11.0°
Sets 03:12:02 0° 20° (NNE) 2,890 6.1 -10.7°
